Location: ??
(35.1714°N, 128.2806°E)
Time: 14:54:40
(UTC+00:00)

Cosmos 1689 Rocket - Pass Details

Date: 29 October 2020
Orbit: 360 x 374 km, 97.5° (Epoch: 01 December)

Event Time Altitude Azimuth Distance (km) Brightness Sun altitude
Rises 20:55:26 0° 173° (S) 2,227 6.1 -11.0°
Reaches altitude 10° 20:57:23 10° 177° (S) 1,378 5.0 -10.6°
Maximum altitude 21:00:17 62° 259° (W) 426 2.0 -10.0°
Drops below altitude 10° 21:03:12 10° 341° (NNW) 1,378 4.6 -9.4°
Sets 21:05:09 0° 345° (NNW) 2,228 5.7 -9.0°
